{"data":{"norad_id":65612,"intl_designator":"2025-207W","name":"STARLINK-35154","alt_names":[],"object_type":"PAYLOAD","status":"ACTIVE","operator":null,"country":"US","launch_date":"2025-09-13","launch_site_code":"AFWTR","launch_vehicle":null,"mission":null,"orbit_class":"UNKNOWN","rcs_meters":null,"size_class":null,"mass_kg":null,"dimensions":null,"purposes":["comms"],"wikipedia_slug":null,"has_3d_model":false,"image_url":null,"decayed_at":null,"tle_current":{"epoch":"2026-05-25T02:31:54.414624Z","epoch_age_seconds":62606,"freshness":"FRESH","line1":"1 65612U 25207W   26145.10549091  .00004647  00000+0  32580-3 0  9994","line2":"2 65612  97.4472 213.6797 0002629 130.9674 229.1781 15.05661005 39606","mean_motion":15.05661005,"eccentricity":0.0002629,"inclination_deg":97.4472,"raan_deg":213.6797,"arg_perigee_deg":130.9674,"mean_anomaly_deg":229.1781,"bstar":0.0003258,"rev_number":3960,"period_min":95.639057876776,"perigee_km":547.65612767317,"apogee_km":551.29866732337,"semimajor_km":6927.6143974983,"source":"CELESTRAK","updated_at":"2026-05-25T13:38:20.856416Z"}}}